Year,Month,Day,Hour,Minute,Value (Times are PST for temperature in C)
2007,10,17,00,00,6.30
2007,10,17,00,01,6.30
2007,10,17,00,02,6.30
2007,10,17,00,03,6.30
2007,10,17,00,04,6.30
2007,10,17,00,05,6.30
2007,10,17,00,06,6.30
2007,10,17,00,07,6.30
2007,10,17,00,08,6.30
2007,10,17,00,09,6.30
2007,10,17,00,10,6.30
2007,10,17,00,11,6.30
2007,10,17,00,12,6.30
2007,10,17,00,13,6.30
2007,10,17,00,14,6.30
2007,10,17,00,15,6.30
2007,10,17,00,16,6.30
2007,10,17,00,17,6.30
2007,10,17,00,18,6.20
2007,10,17,00,19,6.20
2007,10,17,00,20,6.20
2007,10,17,00,21,6.20
2007,10,17,00,22,6.20
2007,10,17,00,23,6.20
2007,10,17,00,24,6.20
2007,10,17,00,25,6.20
2007,10,17,00,26,6.20
2007,10,17,00,27,6.20
2007,10,17,00,28,6.30
2007,10,17,00,29,6.30
2007,10,17,00,30,6.40
2007,10,17,00,31,6.40
2007,10,17,00,32,6.40
2007,10,17,00,33,6.40
2007,10,17,00,34,6.40
2007,10,17,00,35,6.30
2007,10,17,00,36,6.30
2007,10,17,00,37,6.30
2007,10,17,00,38,6.30
2007,10,17,00,39,6.30
2007,10,17,00,40,6.30
2007,10,17,00,41,6.30
2007,10,17,00,42,6.30
2007,10,17,00,43,6.30
2007,10,17,00,44,6.30
2007,10,17,00,45,6.30
2007,10,17,00,46,6.30
2007,10,17,00,47,6.40
2007,10,17,00,48,6.40
2007,10,17,00,49,6.40
2007,10,17,00,50,6.40
2007,10,17,00,51,6.40
2007,10,17,00,52,6.40
2007,10,17,00,53,6.40
2007,10,17,00,54,6.40
2007,10,17,00,55,6.40
2007,10,17,00,56,6.40
2007,10,17,00,57,6.40
2007,10,17,00,58,6.40
2007,10,17,00,59,6.40
2007,10,17,01,00,6.40
2007,10,17,01,01,6.40
2007,10,17,01,02,6.40
2007,10,17,01,03,6.40
2007,10,17,01,04,6.50
2007,10,17,01,05,6.60
2007,10,17,01,06,6.60
2007,10,17,01,07,6.60
2007,10,17,01,08,6.60
2007,10,17,01,09,6.60
2007,10,17,01,10,6.70
2007,10,17,01,11,6.70
2007,10,17,01,12,6.70
2007,10,17,01,13,6.70
2007,10,17,01,14,6.80
2007,10,17,01,15,6.80
2007,10,17,01,16,6.80
2007,10,17,01,17,6.80
2007,10,17,01,18,6.80
2007,10,17,01,19,6.80
2007,10,17,01,20,6.80
2007,10,17,01,21,6.80
2007,10,17,01,22,6.80
2007,10,17,01,23,6.80
2007,10,17,01,24,6.80
2007,10,17,01,25,6.80
2007,10,17,01,26,6.80
2007,10,17,01,27,6.90
2007,10,17,01,28,6.90
2007,10,17,01,29,6.90
2007,10,17,01,30,6.90
2007,10,17,01,31,6.90
2007,10,17,01,32,7.00
2007,10,17,01,33,7.00
2007,10,17,01,34,7.00
2007,10,17,01,35,7.00
2007,10,17,01,36,7.00
2007,10,17,01,37,7.10
2007,10,17,01,38,7.10
2007,10,17,01,39,7.10
2007,10,17,01,40,7.10
2007,10,17,01,41,7.10
2007,10,17,01,42,7.10
2007,10,17,01,43,7.10
2007,10,17,01,44,7.10
2007,10,17,01,45,7.10
2007,10,17,01,46,7.10
2007,10,17,01,47,7.10
2007,10,17,01,48,7.20
2007,10,17,01,49,7.20
2007,10,17,01,50,7.20
2007,10,17,01,51,7.20
2007,10,17,01,52,7.20
2007,10,17,01,53,7.30
2007,10,17,01,54,7.30
2007,10,17,01,55,7.30
2007,10,17,01,56,7.30
2007,10,17,01,57,7.30
2007,10,17,01,58,7.30
2007,10,17,01,59,7.30
2007,10,17,02,00,7.30
2007,10,17,02,01,7.30
2007,10,17,02,02,7.30
2007,10,17,02,03,7.30
2007,10,17,02,04,7.40
2007,10,17,02,05,7.40
2007,10,17,02,06,7.50
2007,10,17,02,07,7.50
2007,10,17,02,08,7.60
2007,10,17,02,09,7.60
2007,10,17,02,10,7.60
2007,10,17,02,11,7.70
2007,10,17,02,12,7.70
2007,10,17,02,13,7.70
2007,10,17,02,14,7.70
2007,10,17,02,15,7.70
2007,10,17,02,16,7.70
2007,10,17,02,17,7.80
2007,10,17,02,18,7.80
2007,10,17,02,19,7.80
2007,10,17,02,20,7.90
2007,10,17,02,21,7.90
2007,10,17,02,22,8.00
2007,10,17,02,23,8.00
2007,10,17,02,24,8.10
2007,10,17,02,25,8.10
2007,10,17,02,26,8.20
2007,10,17,02,27,8.20
2007,10,17,02,28,8.20
2007,10,17,02,29,8.20
2007,10,17,02,30,8.20
2007,10,17,02,31,8.30
2007,10,17,02,32,8.30
2007,10,17,02,33,8.30
2007,10,17,02,34,8.30
2007,10,17,02,35,8.30
2007,10,17,02,36,8.30
2007,10,17,02,37,8.30
2007,10,17,02,38,8.30
2007,10,17,02,39,8.30
2007,10,17,02,40,8.40
2007,10,17,02,41,8.40
2007,10,17,02,42,8.40
2007,10,17,02,43,8.40
2007,10,17,02,44,8.50
2007,10,17,02,45,8.50
2007,10,17,02,46,8.50
2007,10,17,02,47,8.50
2007,10,17,02,48,8.40
2007,10,17,02,49,8.40
2007,10,17,02,50,8.40
2007,10,17,02,51,8.50
2007,10,17,02,52,8.50
2007,10,17,02,53,8.40
2007,10,17,02,54,8.40
2007,10,17,02,55,8.40
2007,10,17,02,56,8.40
2007,10,17,02,57,8.30
2007,10,17,02,58,8.30
2007,10,17,02,59,8.30
2007,10,17,03,00,8.20
2007,10,17,03,01,8.20
2007,10,17,03,02,8.20
2007,10,17,03,03,8.20
2007,10,17,03,04,8.10
2007,10,17,03,05,8.00
2007,10,17,03,06,8.00
2007,10,17,03,07,7.90
2007,10,17,03,08,7.90
2007,10,17,03,09,7.90
2007,10,17,03,10,7.90
2007,10,17,03,11,7.80
2007,10,17,03,12,7.80
2007,10,17,03,13,7.80
2007,10,17,03,14,7.80
2007,10,17,03,15,7.80
2007,10,17,03,16,7.80
2007,10,17,03,17,7.80
2007,10,17,03,18,7.80
2007,10,17,03,19,7.80
2007,10,17,03,20,7.80
2007,10,17,03,21,7.80
2007,10,17,03,22,7.80
2007,10,17,03,23,7.80
2007,10,17,03,24,7.80
2007,10,17,03,25,7.80
2007,10,17,03,26,7.80
2007,10,17,03,27,7.80
2007,10,17,03,28,7.70
2007,10,17,03,29,7.70
2007,10,17,03,30,7.70
2007,10,17,03,31,7.70
2007,10,17,03,32,7.60
2007,10,17,03,33,7.60
2007,10,17,03,34,7.60
2007,10,17,03,35,7.60
2007,10,17,03,36,7.60
2007,10,17,03,37,7.60
2007,10,17,03,38,7.60
2007,10,17,03,39,7.60
2007,10,17,03,40,7.60
2007,10,17,03,41,7.60
2007,10,17,03,42,7.60
2007,10,17,03,43,7.60
2007,10,17,03,44,7.60
2007,10,17,03,45,7.60
2007,10,17,03,46,7.60
2007,10,17,03,47,7.60
2007,10,17,03,48,7.70
2007,10,17,03,49,7.70
2007,10,17,03,50,7.70
2007,10,17,03,51,7.70
2007,10,17,03,52,7.70
2007,10,17,03,53,7.70
2007,10,17,03,54,7.70
2007,10,17,03,55,7.70
2007,10,17,03,56,7.70
2007,10,17,03,57,7.70
2007,10,17,03,58,7.80
2007,10,17,03,59,7.80
2007,10,17,04,00,7.80
2007,10,17,04,01,7.90
2007,10,17,04,02,7.90
2007,10,17,04,03,8.00
2007,10,17,04,04,8.00
2007,10,17,04,05,8.00
2007,10,17,04,06,8.00
2007,10,17,04,07,8.00
2007,10,17,04,08,8.00
2007,10,17,04,09,8.00
2007,10,17,04,10,8.00
2007,10,17,04,11,8.00
2007,10,17,04,12,8.00
2007,10,17,04,13,8.00
2007,10,17,04,14,8.00
2007,10,17,04,15,8.00
2007,10,17,04,16,8.00
2007,10,17,04,17,8.00
2007,10,17,04,18,8.00
2007,10,17,04,19,8.00
2007,10,17,04,20,8.00
2007,10,17,04,21,8.00
2007,10,17,04,22,8.00
2007,10,17,04,23,8.00
2007,10,17,04,24,7.90
2007,10,17,04,25,7.90
2007,10,17,04,26,7.90
2007,10,17,04,27,7.90
2007,10,17,04,28,7.90
2007,10,17,04,29,7.90
2007,10,17,04,30,7.90
2007,10,17,04,31,7.90
2007,10,17,04,32,7.80
2007,10,17,04,33,7.80
2007,10,17,04,34,7.80
2007,10,17,04,35,7.90
2007,10,17,04,36,7.90
2007,10,17,04,37,7.90
2007,10,17,04,38,7.90
2007,10,17,04,39,7.80
2007,10,17,04,40,7.80
2007,10,17,04,41,7.80
2007,10,17,04,42,7.80
2007,10,17,04,43,7.80
2007,10,17,04,44,7.80
2007,10,17,04,45,7.80
2007,10,17,04,46,7.80
2007,10,17,04,47,7.80
2007,10,17,04,48,7.70
2007,10,17,04,49,7.70
2007,10,17,04,50,7.70
2007,10,17,04,51,7.70
2007,10,17,04,52,7.80
2007,10,17,04,53,7.80
2007,10,17,04,54,7.80
2007,10,17,04,55,7.70
2007,10,17,04,56,7.70
2007,10,17,04,57,7.70
2007,10,17,04,58,7.70
2007,10,17,04,59,7.70
2007,10,17,05,00,7.70
2007,10,17,05,01,7.70
2007,10,17,05,02,7.60
2007,10,17,05,03,7.60
2007,10,17,05,04,7.60
2007,10,17,05,05,7.60
2007,10,17,05,06,7.60
2007,10,17,05,07,7.60
2007,10,17,05,08,7.50
2007,10,17,05,09,7.50
2007,10,17,05,10,7.50
2007,10,17,05,11,7.50
2007,10,17,05,12,7.50
2007,10,17,05,13,7.40
2007,10,17,05,14,7.40
2007,10,17,05,15,7.40
2007,10,17,05,16,7.30
2007,10,17,05,17,7.30
2007,10,17,05,18,7.30
2007,10,17,05,19,7.30
2007,10,17,05,20,7.30
2007,10,17,05,21,7.30
2007,10,17,05,22,7.30
2007,10,17,05,23,7.30
2007,10,17,05,24,7.30
2007,10,17,05,25,7.30
2007,10,17,05,26,7.30
2007,10,17,05,27,7.30
2007,10,17,05,28,7.30
2007,10,17,05,29,7.30
2007,10,17,05,30,7.30
2007,10,17,05,31,7.20
2007,10,17,05,32,7.20
2007,10,17,05,33,7.20
2007,10,17,05,34,7.20
2007,10,17,05,35,7.20
2007,10,17,05,36,7.20
2007,10,17,05,37,7.20
2007,10,17,05,38,7.20
2007,10,17,05,39,7.20
2007,10,17,05,40,7.20
2007,10,17,05,41,7.20
2007,10,17,05,42,7.20
2007,10,17,05,43,7.20
2007,10,17,05,44,7.20
2007,10,17,05,45,7.10
2007,10,17,05,46,7.10
2007,10,17,05,47,7.10
2007,10,17,05,48,7.10
2007,10,17,05,49,7.10
2007,10,17,05,50,7.10
2007,10,17,05,51,7.10
2007,10,17,05,52,7.10
2007,10,17,05,53,7.10
2007,10,17,05,54,7.00
2007,10,17,05,55,7.00
2007,10,17,05,56,7.00
2007,10,17,05,57,7.00
2007,10,17,05,58,6.90
2007,10,17,05,59,6.90
2007,10,17,06,00,6.90
2007,10,17,06,01,6.80
2007,10,17,06,02,6.80
2007,10,17,06,03,6.80
2007,10,17,06,04,6.80
2007,10,17,06,05,6.80
2007,10,17,06,06,6.80
2007,10,17,06,07,6.80
2007,10,17,06,08,6.80
2007,10,17,06,09,6.70
2007,10,17,06,10,6.70
2007,10,17,06,11,6.70
2007,10,17,06,12,6.60
2007,10,17,06,13,6.60
2007,10,17,06,14,6.60
2007,10,17,06,15,6.60
2007,10,17,06,16,6.50
2007,10,17,06,17,6.40
2007,10,17,06,18,6.40
2007,10,17,06,19,6.40
2007,10,17,06,20,6.40
2007,10,17,06,21,6.40
2007,10,17,06,22,6.30
2007,10,17,06,23,6.30
2007,10,17,06,24,6.30
2007,10,17,06,25,6.30
2007,10,17,06,26,6.20
2007,10,17,06,27,6.20
2007,10,17,06,28,6.20
2007,10,17,06,29,6.20
2007,10,17,06,30,6.20
2007,10,17,06,31,6.20
2007,10,17,06,32,6.10
2007,10,17,06,33,6.10
2007,10,17,06,34,6.00
2007,10,17,06,35,6.00
2007,10,17,06,36,6.00
2007,10,17,06,37,6.00
2007,10,17,06,38,6.00
2007,10,17,06,39,6.00
2007,10,17,06,40,6.00
2007,10,17,06,41,6.00
2007,10,17,06,42,6.00
2007,10,17,06,43,6.00
2007,10,17,06,44,6.00
2007,10,17,06,45,6.00
2007,10,17,06,46,6.00
2007,10,17,06,47,5.90
2007,10,17,06,48,5.90
2007,10,17,06,49,5.90
2007,10,17,06,50,5.90
2007,10,17,06,51,5.90
2007,10,17,06,52,5.80
2007,10,17,06,53,5.80
2007,10,17,06,54,5.80
2007,10,17,06,55,5.80
2007,10,17,06,56,5.70
2007,10,17,06,57,5.70
2007,10,17,06,58,5.70
2007,10,17,06,59,5.70
2007,10,17,07,00,5.70
2007,10,17,07,01,5.70
2007,10,17,07,02,5.70
2007,10,17,07,03,5.70
2007,10,17,07,04,5.70
2007,10,17,07,05,5.70
2007,10,17,07,06,5.70
2007,10,17,07,07,5.70
2007,10,17,07,08,5.70
2007,10,17,07,09,5.70
2007,10,17,07,10,5.70
2007,10,17,07,11,5.70
2007,10,17,07,12,5.70
2007,10,17,07,13,5.70
2007,10,17,07,14,5.60
2007,10,17,07,15,5.60
2007,10,17,07,16,5.60
2007,10,17,07,17,5.60
2007,10,17,07,18,5.50
2007,10,17,07,19,5.50
2007,10,17,07,20,5.50
2007,10,17,07,21,5.40
2007,10,17,07,22,5.40
2007,10,17,07,23,5.40
2007,10,17,07,24,5.40
2007,10,17,07,25,5.30
2007,10,17,07,26,5.30
2007,10,17,07,27,5.30
2007,10,17,07,28,5.30
2007,10,17,07,29,5.30
2007,10,17,07,30,5.30
2007,10,17,07,31,5.30
2007,10,17,07,32,5.30
2007,10,17,07,33,5.20
2007,10,17,07,34,5.20
2007,10,17,07,35,5.20
2007,10,17,07,36,5.20
2007,10,17,07,37,5.20
2007,10,17,07,38,5.20
2007,10,17,07,39,5.10
2007,10,17,07,40,5.10
2007,10,17,07,41,5.10
2007,10,17,07,42,5.10
2007,10,17,07,43,5.10
2007,10,17,07,44,5.10
2007,10,17,07,45,5.10
2007,10,17,07,46,5.10
2007,10,17,07,47,5.10
2007,10,17,07,48,5.10
2007,10,17,07,49,5.10
2007,10,17,07,50,5.10
2007,10,17,07,51,5.10
2007,10,17,07,52,5.10
2007,10,17,07,53,5.10
2007,10,17,07,54,5.10
2007,10,17,07,55,5.10
2007,10,17,07,56,5.10
2007,10,17,07,57,5.10
2007,10,17,07,58,5.10
2007,10,17,07,59,5.10
2007,10,17,08,00,5.10
2007,10,17,08,01,4.90
2007,10,17,08,02,4.90
2007,10,17,08,03,4.90
2007,10,17,08,04,4.90
2007,10,17,08,05,4.90
2007,10,17,08,06,4.90
2007,10,17,08,07,4.90
2007,10,17,08,08,4.90
2007,10,17,08,09,4.90
2007,10,17,08,10,4.90
2007,10,17,08,11,4.90
2007,10,17,08,12,4.90
2007,10,17,08,13,4.90
2007,10,17,08,14,4.90
2007,10,17,08,15,4.90
2007,10,17,08,16,4.90
2007,10,17,08,17,4.90
2007,10,17,08,18,4.90
2007,10,17,08,19,4.90
2007,10,17,08,20,4.90
2007,10,17,08,21,4.90
2007,10,17,08,22,4.90
2007,10,17,08,23,4.90
2007,10,17,08,24,4.90
2007,10,17,08,25,4.90
2007,10,17,08,26,4.90
2007,10,17,08,27,4.90
2007,10,17,08,28,4.90
2007,10,17,08,29,4.90
2007,10,17,08,30,4.90
2007,10,17,08,31,4.90
2007,10,17,08,32,4.90
2007,10,17,08,33,4.90
2007,10,17,08,34,4.90
2007,10,17,08,35,4.90
2007,10,17,08,36,4.90
2007,10,17,08,37,4.90
2007,10,17,08,38,4.90
2007,10,17,08,39,4.90
2007,10,17,08,40,4.90
2007,10,17,08,41,4.90
2007,10,17,08,42,4.90
2007,10,17,08,43,4.90
2007,10,17,08,44,4.90
2007,10,17,08,45,5.10
2007,10,17,08,46,5.10
2007,10,17,08,47,5.10
2007,10,17,08,48,5.10
2007,10,17,08,49,5.10
2007,10,17,08,50,5.10
2007,10,17,08,51,5.20
2007,10,17,08,52,5.20
2007,10,17,08,53,5.30
2007,10,17,08,54,5.30
2007,10,17,08,55,5.30
2007,10,17,08,56,5.30
2007,10,17,08,57,5.40
2007,10,17,08,58,5.40
2007,10,17,08,59,5.50
2007,10,17,09,00,5.50
2007,10,17,09,01,5.60
2007,10,17,09,02,5.60
2007,10,17,09,03,5.70
2007,10,17,09,04,5.70
2007,10,17,09,05,5.80
2007,10,17,09,06,5.90
2007,10,17,09,07,5.90
2007,10,17,09,08,6.00
2007,10,17,09,09,6.10
2007,10,17,09,10,6.20
2007,10,17,09,11,6.20
2007,10,17,09,12,6.30
2007,10,17,09,13,6.40
2007,10,17,09,14,6.50
2007,10,17,09,15,6.60
2007,10,17,09,16,6.60
2007,10,17,09,17,6.80
2007,10,17,09,18,6.90
2007,10,17,09,19,7.00
2007,10,17,09,20,7.20
2007,10,17,09,21,7.30
2007,10,17,09,22,7.30
2007,10,17,09,23,7.40
2007,10,17,09,24,7.40
2007,10,17,09,25,7.50
2007,10,17,09,26,7.60
2007,10,17,09,27,7.70
2007,10,17,09,28,7.80
2007,10,17,09,29,7.80
2007,10,17,09,30,7.80
2007,10,17,09,31,7.90
2007,10,17,09,32,7.90
2007,10,17,09,33,8.00
2007,10,17,09,34,8.00
2007,10,17,09,35,8.10
2007,10,17,09,36,8.10
2007,10,17,09,37,8.20
2007,10,17,09,38,8.20
2007,10,17,09,39,8.30
2007,10,17,09,40,8.30
2007,10,17,09,41,8.40
2007,10,17,09,42,8.50
2007,10,17,09,43,8.60
2007,10,17,09,44,8.70
2007,10,17,09,45,8.70
2007,10,17,09,46,8.90
2007,10,17,09,47,9.00
2007,10,17,09,48,9.00
2007,10,17,09,49,9.10
2007,10,17,09,50,9.20
2007,10,17,09,51,9.40
2007,10,17,09,52,9.50
2007,10,17,09,53,9.60
2007,10,17,09,54,9.70
2007,10,17,09,55,9.70
2007,10,17,09,56,9.80
2007,10,17,09,57,9.90
2007,10,17,09,58,9.90
2007,10,17,09,59,9.90
2007,10,17,10,00,9.90
2007,10,17,10,01,10.10
2007,10,17,10,02,10.10
2007,10,17,10,03,10.20
2007,10,17,10,04,10.30
2007,10,17,10,05,10.30
2007,10,17,10,06,10.30
2007,10,17,10,07,10.40
2007,10,17,10,08,10.40
2007,10,17,10,09,10.40
2007,10,17,10,10,10.40
2007,10,17,10,11,10.40
2007,10,17,10,12,10.40
2007,10,17,10,13,10.40
2007,10,17,10,14,10.40
2007,10,17,10,15,10.30
2007,10,17,10,16,10.30
2007,10,17,10,17,10.30
2007,10,17,10,18,10.30
2007,10,17,10,19,10.30
2007,10,17,10,20,10.40
2007,10,17,10,21,10.40
2007,10,17,10,22,10.40
2007,10,17,10,23,10.40
2007,10,17,10,24,10.40
2007,10,17,10,25,10.40
2007,10,17,10,26,10.50
2007,10,17,10,27,10.60
2007,10,17,10,28,10.60
2007,10,17,10,29,10.60
2007,10,17,10,30,10.60
2007,10,17,10,31,10.70
2007,10,17,10,32,10.80
2007,10,17,10,33,10.90
2007,10,17,10,34,10.90
2007,10,17,10,35,11.10
2007,10,17,10,36,11.20
2007,10,17,10,37,11.20
2007,10,17,10,38,11.30
2007,10,17,10,39,11.30
2007,10,17,10,40,11.30
2007,10,17,10,41,11.40
2007,10,17,10,42,11.40
2007,10,17,10,43,11.30
2007,10,17,10,44,11.40
2007,10,17,10,45,11.40
2007,10,17,10,46,11.40
2007,10,17,10,47,11.40
2007,10,17,10,48,11.40
2007,10,17,10,49,11.40
2007,10,17,10,50,11.40
2007,10,17,10,51,11.40
2007,10,17,10,52,11.40
2007,10,17,10,53,11.40
2007,10,17,10,54,11.30
2007,10,17,10,55,11.20
2007,10,17,10,56,11.30
2007,10,17,10,57,11.30
2007,10,17,10,58,11.30
2007,10,17,10,59,11.20
2007,10,17,11,00,11.20
2007,10,17,11,01,11.20
2007,10,17,11,02,11.20
2007,10,17,11,03,11.20
2007,10,17,11,04,11.20
2007,10,17,11,05,11.20
2007,10,17,11,06,11.10
2007,10,17,11,07,11.10
2007,10,17,11,08,11.10
2007,10,17,11,09,11.10
2007,10,17,11,10,11.10
2007,10,17,11,11,11.10
2007,10,17,11,12,11.10
2007,10,17,11,13,11.10
2007,10,17,11,14,11.10
2007,10,17,11,15,11.10
2007,10,17,11,16,11.10
2007,10,17,11,17,11.10
2007,10,17,11,18,11.10
2007,10,17,11,19,11.10
2007,10,17,11,20,11.10
2007,10,17,11,21,11.10
2007,10,17,11,22,11.10
2007,10,17,11,23,11.10
2007,10,17,11,24,11.10
2007,10,17,11,25,11.10
2007,10,17,11,26,11.10
2007,10,17,11,27,11.10
2007,10,17,11,28,11.10
2007,10,17,11,29,11.20
2007,10,17,11,30,11.20
2007,10,17,11,31,11.20
2007,10,17,11,32,11.20
2007,10,17,11,33,11.30
2007,10,17,11,34,11.30
2007,10,17,11,35,11.30
2007,10,17,11,36,11.30
2007,10,17,11,37,11.30
2007,10,17,11,38,11.30
2007,10,17,11,39,11.30
2007,10,17,11,40,11.20
2007,10,17,11,41,11.20
2007,10,17,11,42,11.20
2007,10,17,11,43,11.20
2007,10,17,11,44,11.10
2007,10,17,11,45,11.10
2007,10,17,11,46,11.10
2007,10,17,11,47,11.10
2007,10,17,11,48,11.10
2007,10,17,11,49,11.20
2007,10,17,11,50,11.20
2007,10,17,11,51,11.20
2007,10,17,11,52,11.30
2007,10,17,11,53,11.30
2007,10,17,11,54,11.30
2007,10,17,11,55,11.30
2007,10,17,11,56,11.30
2007,10,17,11,57,11.30
2007,10,17,11,58,11.30
2007,10,17,11,59,11.30
2007,10,17,12,00,11.30
2007,10,17,12,01,11.40
2007,10,17,12,02,11.40
2007,10,17,12,03,11.40
2007,10,17,12,04,11.40
2007,10,17,12,05,11.50
2007,10,17,12,06,11.60
2007,10,17,12,07,11.60
2007,10,17,12,08,11.60
2007,10,17,12,09,11.60
2007,10,17,12,10,11.70
2007,10,17,12,11,11.70
2007,10,17,12,12,11.60
2007,10,17,12,13,11.60
2007,10,17,12,14,11.60
2007,10,17,12,15,11.60
2007,10,17,12,16,11.40
2007,10,17,12,17,11.40
2007,10,17,12,18,11.50
2007,10,17,12,19,11.60
2007,10,17,12,20,11.60
2007,10,17,12,21,11.60
2007,10,17,12,22,11.60
2007,10,17,12,23,11.60
2007,10,17,12,24,11.60
2007,10,17,12,25,11.60
2007,10,17,12,26,11.60
2007,10,17,12,27,11.60
2007,10,17,12,28,11.60
2007,10,17,12,29,11.60
2007,10,17,12,30,11.60
2007,10,17,12,31,11.60
2007,10,17,12,32,11.60
2007,10,17,12,33,11.70
2007,10,17,12,34,11.70
2007,10,17,12,35,11.70
2007,10,17,12,36,11.80
2007,10,17,12,37,11.80
2007,10,17,12,38,11.80
2007,10,17,12,39,11.80
2007,10,17,12,40,11.80
2007,10,17,12,41,11.70
2007,10,17,12,42,11.70
2007,10,17,12,43,11.70
2007,10,17,12,44,11.60
2007,10,17,12,45,11.60
2007,10,17,12,46,11.60
2007,10,17,12,47,11.60
2007,10,17,12,48,11.60
2007,10,17,12,49,11.60
2007,10,17,12,50,11.60
2007,10,17,12,51,11.60
2007,10,17,12,52,11.60
2007,10,17,12,53,11.70
2007,10,17,12,54,11.70
2007,10,17,12,55,11.80
2007,10,17,12,56,11.90
2007,10,17,12,57,12.00
2007,10,17,12,58,12.20
2007,10,17,12,59,12.30
2007,10,17,13,00,12.50
2007,10,17,13,01,12.60
2007,10,17,13,02,12.70
2007,10,17,13,03,12.80
2007,10,17,13,04,13.00
2007,10,17,13,05,13.10
2007,10,17,13,06,13.20
2007,10,17,13,07,13.20
2007,10,17,13,08,13.20
2007,10,17,13,09,13.30
2007,10,17,13,10,13.30
2007,10,17,13,11,13.30
2007,10,17,13,12,13.30
2007,10,17,13,13,13.20
2007,10,17,13,14,13.10
2007,10,17,13,15,12.80
2007,10,17,13,16,12.70
2007,10,17,13,17,12.60
2007,10,17,13,18,12.50
2007,10,17,13,19,12.50
2007,10,17,13,20,12.40
2007,10,17,13,21,12.30
2007,10,17,13,22,12.30
2007,10,17,13,23,12.20
2007,10,17,13,24,12.20
2007,10,17,13,25,12.20
2007,10,17,13,26,12.20
2007,10,17,13,27,12.20
2007,10,17,13,28,12.20
2007,10,17,13,29,12.20
2007,10,17,13,30,12.20
2007,10,17,13,31,12.20
2007,10,17,13,32,12.20
2007,10,17,13,33,12.30
2007,10,17,13,34,12.30
2007,10,17,13,35,12.30
2007,10,17,13,36,12.30
2007,10,17,13,37,12.40
2007,10,17,13,38,12.40
2007,10,17,13,39,12.50
2007,10,17,13,40,12.50
2007,10,17,13,41,12.60
2007,10,17,13,42,12.60
2007,10,17,13,43,12.70
2007,10,17,13,44,12.80
2007,10,17,13,45,12.80
2007,10,17,13,46,12.80
2007,10,17,13,47,12.80
2007,10,17,13,48,12.80
2007,10,17,13,49,12.80
2007,10,17,13,50,12.80
2007,10,17,13,51,12.80
2007,10,17,13,52,12.80
2007,10,17,13,53,12.80
2007,10,17,13,54,12.90
2007,10,17,13,55,12.90
2007,10,17,13,56,13.00
2007,10,17,13,57,12.90
2007,10,17,13,58,12.90
2007,10,17,13,59,13.00
2007,10,17,14,00,13.10
2007,10,17,14,01,13.10
2007,10,17,14,02,13.20
2007,10,17,14,03,13.20
2007,10,17,14,04,13.20
2007,10,17,14,05,13.10
2007,10,17,14,06,12.90
2007,10,17,14,07,12.80
2007,10,17,14,08,12.80
2007,10,17,14,09,12.80
2007,10,17,14,10,12.80
2007,10,17,14,11,12.70
2007,10,17,14,12,12.70
2007,10,17,14,13,12.60
2007,10,17,14,14,12.50
2007,10,17,14,15,12.40
2007,10,17,14,16,12.40
2007,10,17,14,17,12.40
2007,10,17,14,18,12.40
2007,10,17,14,19,12.30
2007,10,17,14,20,12.30
2007,10,17,14,21,12.10
2007,10,17,14,22,12.10
2007,10,17,14,23,12.10
2007,10,17,14,24,12.10
2007,10,17,14,25,12.10
2007,10,17,14,26,12.20
2007,10,17,14,27,12.20
2007,10,17,14,28,12.20
2007,10,17,14,29,12.10
2007,10,17,14,30,12.10
2007,10,17,14,31,12.10
2007,10,17,14,32,12.10
2007,10,17,14,33,12.10
2007,10,17,14,34,12.00
2007,10,17,14,35,12.10
2007,10,17,14,36,12.10
2007,10,17,14,37,12.10
2007,10,17,14,38,12.10
2007,10,17,14,39,12.10
2007,10,17,14,40,12.20
2007,10,17,14,41,12.20
2007,10,17,14,42,12.20
2007,10,17,14,43,12.30
2007,10,17,14,44,12.20
2007,10,17,14,45,12.20
2007,10,17,14,46,12.20
2007,10,17,14,47,12.20
2007,10,17,14,48,12.20
2007,10,17,14,49,12.10
2007,10,17,14,50,12.00
2007,10,17,14,51,12.00
2007,10,17,14,52,11.90
2007,10,17,14,53,11.80
2007,10,17,14,54,11.80
2007,10,17,14,55,11.80
2007,10,17,14,56,11.80
2007,10,17,14,57,11.90
2007,10,17,14,58,11.90
2007,10,17,14,59,12.00
2007,10,17,15,00,12.10
2007,10,17,15,01,12.20
2007,10,17,15,02,12.20
2007,10,17,15,03,12.20
2007,10,17,15,04,12.20
2007,10,17,15,05,12.20
2007,10,17,15,06,12.30
2007,10,17,15,07,12.30
2007,10,17,15,08,12.30
2007,10,17,15,09,12.30
2007,10,17,15,10,12.40
2007,10,17,15,11,12.40
2007,10,17,15,12,12.40
2007,10,17,15,13,12.30
2007,10,17,15,14,12.30
2007,10,17,15,15,12.30
2007,10,17,15,16,12.30
2007,10,17,15,17,12.30
2007,10,17,15,18,12.30
2007,10,17,15,19,12.20
2007,10,17,15,20,12.20
2007,10,17,15,21,12.10
2007,10,17,15,22,12.10
2007,10,17,15,23,12.00
2007,10,17,15,24,12.00
2007,10,17,15,25,12.00
2007,10,17,15,26,11.90
2007,10,17,15,27,11.90
2007,10,17,15,28,11.90
2007,10,17,15,29,11.90
2007,10,17,15,30,11.90
2007,10,17,15,31,11.90
2007,10,17,15,32,12.00
2007,10,17,15,33,12.00
2007,10,17,15,34,12.00
2007,10,17,15,35,12.00
2007,10,17,15,36,12.00
2007,10,17,15,37,12.00
2007,10,17,15,38,12.00
2007,10,17,15,39,12.00
2007,10,17,15,40,12.00
2007,10,17,15,41,12.00
2007,10,17,15,42,12.00
2007,10,17,15,43,11.90
2007,10,17,15,44,11.90
2007,10,17,15,45,11.90
2007,10,17,15,46,11.90
2007,10,17,15,47,12.00
2007,10,17,15,48,12.00
2007,10,17,15,49,12.00
2007,10,17,15,50,12.00
2007,10,17,15,51,12.00
2007,10,17,15,52,12.10
2007,10,17,15,53,12.10
2007,10,17,15,54,12.10
2007,10,17,15,55,12.10
2007,10,17,15,56,12.10
2007,10,17,15,57,12.20
2007,10,17,15,58,12.20
2007,10,17,15,59,12.20
2007,10,17,16,00,12.20
2007,10,17,16,01,12.20
2007,10,17,16,02,12.30
2007,10,17,16,03,12.30
2007,10,17,16,04,12.30
2007,10,17,16,05,12.30
2007,10,17,16,06,12.30
2007,10,17,16,07,12.30
2007,10,17,16,08,12.30
2007,10,17,16,09,12.30
2007,10,17,16,10,12.30
2007,10,17,16,11,12.20
2007,10,17,16,12,12.20
2007,10,17,16,13,12.10
2007,10,17,16,14,12.00
2007,10,17,16,15,12.00
2007,10,17,16,16,12.00
2007,10,17,16,17,12.00
2007,10,17,16,18,11.90
2007,10,17,16,19,11.90
2007,10,17,16,20,11.90
2007,10,17,16,21,11.90
2007,10,17,16,22,12.00
2007,10,17,16,23,12.00
2007,10,17,16,24,12.00
2007,10,17,16,25,12.00
2007,10,17,16,26,12.00
2007,10,17,16,27,11.90
2007,10,17,16,28,11.90
2007,10,17,16,29,11.90
2007,10,17,16,30,11.90
2007,10,17,16,31,11.90
2007,10,17,16,32,11.90
2007,10,17,16,33,11.90
2007,10,17,16,34,11.90
2007,10,17,16,35,11.90
2007,10,17,16,36,11.90
2007,10,17,16,37,11.90
2007,10,17,16,38,11.90
2007,10,17,16,39,11.90
2007,10,17,16,40,11.90
2007,10,17,16,41,11.90
2007,10,17,16,42,11.90
2007,10,17,16,43,11.90
2007,10,17,16,44,11.90
2007,10,17,16,45,11.90
2007,10,17,16,46,11.90
2007,10,17,16,47,11.90
2007,10,17,16,48,11.80
2007,10,17,16,49,11.80
2007,10,17,16,50,11.80
2007,10,17,16,51,11.80
2007,10,17,16,52,11.80
2007,10,17,16,53,11.80
2007,10,17,16,54,11.80
2007,10,17,16,55,11.80
2007,10,17,16,56,11.80
2007,10,17,16,57,11.80
2007,10,17,16,58,11.80
2007,10,17,16,59,11.70
2007,10,17,17,00,11.70
2007,10,17,17,01,11.60
2007,10,17,17,02,11.60
2007,10,17,17,03,11.60
2007,10,17,17,04,11.60
2007,10,17,17,05,11.40
2007,10,17,17,06,11.40
2007,10,17,17,07,11.30
2007,10,17,17,08,11.20
2007,10,17,17,09,11.10
2007,10,17,17,10,11.10
2007,10,17,17,11,11.00
2007,10,17,17,12,10.90
2007,10,17,17,13,10.80
2007,10,17,17,14,10.70
2007,10,17,17,15,10.60
2007,10,17,17,16,10.50
2007,10,17,17,17,10.40
2007,10,17,17,18,10.40
2007,10,17,17,19,10.30
2007,10,17,17,20,10.30
2007,10,17,17,21,10.20
2007,10,17,17,22,10.20
2007,10,17,17,23,10.10
2007,10,17,17,24,10.10
2007,10,17,17,25,10.10
2007,10,17,17,26,10.00
2007,10,17,17,27,9.90
2007,10,17,17,28,9.90
2007,10,17,17,29,9.90
2007,10,17,17,30,9.90
2007,10,17,17,31,9.90
2007,10,17,17,32,9.80
2007,10,17,17,33,9.80
2007,10,17,17,34,9.70
2007,10,17,17,35,9.70
2007,10,17,17,36,9.70
2007,10,17,17,37,9.70
2007,10,17,17,38,9.60
2007,10,17,17,39,9.60
2007,10,17,17,40,9.60
2007,10,17,17,41,9.60
2007,10,17,17,42,9.50
2007,10,17,17,43,9.50
2007,10,17,17,44,9.50
2007,10,17,17,45,9.50
2007,10,17,17,46,9.50